Regional Weather Roundup
Issued by NWS

Home | Current Version | Previous Version | Graphics & Text | Print | Product List | Glossary On
Versions: 1 2 3 4 5 6 7 8 9 10 11 12 13 14 15 16 17 18 19 20 21 22 23 24 25 26 27 28 29 30 31 32 33 34 35 36 37 38 39 40 41 42 43 44 45 46 47 48 49 50
000
ASUS44 KMEG 200610
RWRTN
TENNESSEE HOURLY STATE WEATHER ROUNDUP
NATIONAL WEATHER SERVICE MEMPHIS TN
100 AM CDT SAT SEP 20 2014

TNZ002-004-019-021-049-052-054-088>092-200700-
WEST TENNESSEE

CITY           SKY/WX    TMP DP  RH WIND       PRES   REMARKS
MEMPHIS INTL   CLEAR     74  67  78 SE5       30.02F
NWS MEMPHIS      N/A     68 N/A N/A MISG        N/A
JACKSON        CLEAR     64  63  94 CALM      30.04S FOG
DYERSBURG      CLEAR     66  57  72 CALM      30.04S
UNION CITY     CLEAR     63  61  94 CALM      30.03F
PARIS          CLEAR     61  57  88 CALM      30.05F
HUNTINGDON     CLEAR     62  62 100 CALM      30.04F
LEXINGTON      MOCLDY    64  64 100 CALM      30.05S
SAVANNAH       MOCLDY    64  64 100 CALM      30.06R
$$

TNZ008-025-027-028-033-062-065-066-200700-
NORTH MIDDLE TENNESSEE

CITY           SKY/WX    TMP DP  RH WIND       PRES   REMARKS
NASHVILLE      MOCLDY    70  65  84 S3        30.07S
DICKSON        PTCLDY    64  63  94 SE3       30.06S
PORTLAND       PTCLDY    66  63  88 S7        30.06S
CLARKSVILLE    CLEAR     64  62  93 CALM      30.05S
LEBANON        CLEAR     71  63  76 S6        30.06S
SMYRNA         PTCLDY    71  65  81 S5        30.08S
MURFREESBORO   PTCLDY    72  63  73 S6        30.08S
COOKEVILLE     MOCLDY    70  64  83 S7        30.11F
LIVINGSTON     CLEAR     68  61  78 SW6       30.12S
GALLATIN       PTCLDY    69  67  93 CALM      30.08S
CROSSVILLE     CLEAR     67  58  72 VRB6      30.17S
$$

TNZ061-075-076-078-094-096-097-200700-
SOUTH MIDDLE TENNESSEE

CITY           SKY/WX    TMP DP  RH WIND       PRES   REMARKS
LEWISBURG      CLEAR     69  64  84 S6        30.07F
FAYETTEVILLE   MOCLDY    68  63  83 S6        30.10S
TULLAHOMA      CLEAR     68  61  77 SE6       30.12S
WINCHESTER     CLEAR     70  63  78 SE13      30.11S
MCMINNVILLE    MOCLDY    72  64  78 VRB5      30.11F
COLUMBIA       PTCLDY    70  70 100 CALM      30.06S
SHELBYVILLE    CLEAR     72  64  78 SE7       30.10S
$$

TNZ017-018-042-046-047-200700-
NORTHEAST TENNESSEE

CITY           SKY/WX    TMP DP  RH WIND       PRES   REMARKS
TRI CITIES     CLEAR     61  54  77 CALM      30.20S
ELIZABETHTON   CLEAR     64  55  72 E8        30.21F
$$

TNZ012-013-036-069-073-074-200700-
CENTRAL EAST TENNESSEE

CITY           SKY/WX    TMP DP  RH WIND       PRES   REMARKS
KNOXVILLE      NOT AVBL
OAK RIDGE      CLEAR     68  62  81 CALM      30.16R
GATLINBURG     CLEAR     61  57  88 CALM      30.14S
MORRISTOWN     CLEAR     66  55  68 E6        30.17S
$$

TNZ083-085-099-200700-
SOUTHEAST TENNESSEE

CITY           SKY/WX    TMP DP  RH WIND       PRES   REMARKS
CHATTANOOGA    CLEAR     70  61  73 S5        30.14S
$$

SKY/WX REPORTED AS FAIR MEANS FEW OR NO CLOUDS BELOW
12 THOUSAND FEET.



USA.gov is the U.S. government's official web portal to all federal, state and local government web resources and services.